Location: Unspecified
(0.0000°N, 0.0000°E)
Time: 13:37:56
(UTC+00:00)

Courier 1B Rocket - Pass Details

Date: 23 November 2019
Orbit: 920 x 1202 km, 28.2° (Epoch: 08 December)

Event Time Altitude Azimuth Distance (km) Brightness Sun altitude
Rises 00:43:31 0° 252° (WSW) 4,047 - -65.4°
Reaches altitude 10° 00:48:37 10° 224° (SW) 3,033 - -64.6°
Maximum altitude 00:51:26 12° 202° (SSW) 2,826 - -64.2°
Drops below altitude 10° 00:54:13 10° 179° (S) 2,961 - -63.8°
Sets 00:59:03 0° 150° (SSE) 3,844 - -63.0°
